This is the latest recevied weather packets stored in our database for station/object N8QQQ. If no packets are shown the sender has not sent any weather packets the latest 10 day(s).
| Time | Temp. | Humidity | Pressure | Rain* | Wind** | Luminosity | Snow |
|---|---|---|---|---|---|---|---|
| 1778063940 | -0.56° C | 77% | 1010.5 hPa | 0 mm | - | 1 W/m² | - |
| 1778063637 | -0.56° C | 77% | 1010.7 hPa | 0 mm | - | 1 W/m² | - |
| 1778063334 | -0.56° C | 76% | 1010.2 hPa | 0 mm | - | 1 W/m² | - |
| 1778063032 | -0.56° C | 76% | 1010.5 hPa | 0 mm | - | 0 W/m² | - |
| 1778062729 | -0.56° C | 77% | 1010.3 hPa | 0 mm | - | 0 W/m² | - |
| 1778062425 | -0.56° C | 77% | 1010.4 hPa | 0 mm | - | 0 W/m² | - |
| 1778062123 | -0.56° C | 76% | 1010.3 hPa | 0 mm | - | 0 W/m² | - |
| 1778061821 | -0.56° C | 76% | 1010.3 hPa | 0 mm | - | 0 W/m² | - |
| 1778061519 | -0.56° C | 77% | 1010.4 hPa | 0 mm | - | 0 W/m² | - |
| 1778061216 | -0.56° C | 77% | 1010.4 hPa | 0 mm | - | 0 W/m² | - |
| 1778060913 | -0.56° C | 78% | 1010.4 hPa | 0 mm | - | 0 W/m² | - |
| 1778060612 | -0.56° C | 79% | 1010.5 hPa | 0 mm | - | 0 W/m² | - |
| 1778060310 | -0.56° C | 78% | 1010.3 hPa | 0 mm | - | 0 W/m² | - |
| 1778060006 | -0.56° C | 79% | 1010.2 hPa | 0 mm | - | 0 W/m² | - |
| 1778059704 | -0.56° C | 78% | 1010.3 hPa | 0 mm | - | 0 W/m² | - |
| 1778059402 | -0.56° C | 79% | 1010.2 hPa | 0 mm | - | 0 W/m² | - |
| 1778059098 | -0.56° C | 77% | 1010.3 hPa | 0 mm | - | 0 W/m² | - |
| 1778058796 | -0.56° C | 78% | 1010.1 hPa | 0 mm | - | 0 W/m² | - |
| 1778058494 | -0.56° C | 77% | 1010.2 hPa | 0 mm | - | 0 W/m² | - |
| 1778058191 | -1.11° C | 78% | 1010.2 hPa | 0 mm | - | 0 W/m² | - |
| 1778057887 | -1.11° C | 79% | 1010.2 hPa | 0 mm | - | 0 W/m² | - |
| 1778057584 | -1.11° C | 80% | 1010.2 hPa | 0 mm | - | 0 W/m² | - |
| 1778057280 | -1.11° C | 79% | 1010.2 hPa | 0 mm | - | 0 W/m² | - |
| 1778056977 | -1.11° C | 81% | 1010.2 hPa | 0 mm | - | 0 W/m² | - |
| 1778056674 | -1.11° C | 84% | 1010.3 hPa | 0 mm | - | 0 W/m² | - |
* Rain latest hour (hover to see other rain measurements)
** Current wind speed in m/s (hover to see current wind gust speed)